Preview of NWS' New Version of Forecast
This preview is not operational and should not be used for support decisions.

Regional Weather Roundup (RWR)

Issued by National Weather Service (NWS)

                            
000
ASUS46 KSEW 210920
RWRWA 

WASHINGTON REGIONAL WEATHER ROUNDUP
NATIONAL WEATHER SERVICE SEATTLE WA
200 AM PDT SAT SEP 21 2019

NOTE:"FAIR" INDICATES FEW OR NO CLOUDS BELOW 12,000 FEET WITH NO 
SIGNIFICANT WEATHER AND/OR OBSTRUCTIONS TO VISIBILITY.

WAZ507-509-555>559-211000-
SEATTLE, TACOMA, EVERETT, AND VICINITY
  
CITY           SKY/WX    TMP DP  RH WIND       PRES   REMARKS
EVERETT        MOCLDY    57  53  86 CALM      30.17R                  
BOEING FIELD   MOCLDY    59  54  83 CALM      30.16R                  
RENTON         CLOUDY    57  52  83 SE5       30.16R                  
SEATAC AIRPORT CLOUDY    59  55  87 S5        30.16S                  
JBLM-MCCHORD   MOCLDY    53  53 100 CALM      30.16S                  
PUYALLUP       CLOUDY    55  55 100 CALM      30.17S                  
BREMERTON      FOG       56  55  97 SW5       30.16S VSB 1/4          
JBLM-FT LEWIS  CLEAR     54  54 100 CALM      30.15F                  
TACOMA NARROWS PTCLDY    56  54  93 SW3       30.16S                  
$$
 
WAZ001-503-506-510-514-515-211000-
NORTH INTERIOR
  
CITY           SKY/WX    TMP DP  RH WIND       PRES   REMARKS
BELLINGHAM     MOCLDY    57  51  80 CALM      30.14S                  
FRIDAY HARBOR  MOCLDY    52  50  93 CALM      30.15S                  
EASTSOUND      CLOUDY    59  54  82 S6        30.14R                  
PORT ANGELES   CLEAR     53  52  96 SW3       30.16R                  
EDIZ HOOK      FAIR      56  53  91 SW6       30.15S                  
PORT TOWNSEND  CLOUDY    54  54 100 CALM      30.15S                  
NAS WHIDBEY    MOCLDY    59  52  77 CALM      30.19S                  
ARLINGTON      CLOUDY    53  52  96 CALM      30.17R                  
BURLINGTON     CLOUDY    54  52  94 CALM      30.16S                  
$$
 
WAZ020-022-039-040-504-511-512-211000-
SOUTHWEST INTERIOR
  
CITY           SKY/WX    TMP DP  RH WIND       PRES   REMARKS
SHELTON        CLOUDY    57  54  89 W7        30.14S                  
OLYMPIA        CLEAR     50  49  96 CALM      30.16S                  
CHEHALIS       FOG       54  54 100 CALM      30.17S VSB 1/4          
KELSO          CLOUDY    58  57  97 CALM      30.18S                  
VANCOUVER      CLEAR     57  53  86 N3        30.16S                  
SCAPPOOSE, OR  CLEAR     51  51 100 CALM      30.16R FOG              
PORTLAND, OR   PTCLDY    60  55  83 NW3       30.17R                  
$$
 
WAZ021-516-517-211000-
WASHINGTON COAST
  
CITY           SKY/WX    TMP DP  RH WIND       PRES   REMARKS
FORKS          CLOUDY    54  53  97 E5        30.16R                  
HOQUIAM        MOCLDY    55  55 100 CALM      30.17S                  
ASTORIA, OR    LGT RAIN  60  59  96 CALM      30.16S FOG              
$$
 
WAZ019-023-024-040-567>569-211000-
CASCADE MOUNTAINS AND COLUMBIA GORGE
  
CITY           SKY/WX    TMP DP  RH WIND       PRES   REMARKS
STAMPEDE PASS  FOG       47  45  93 VRB3      30.18S VSB 1/4          
TROUTDALE, OR  MOCLDY    59  55  87 CALM      30.16R                  
HOOD RIVER, OR SUNNY     52  46  82 CALM      30.13S                  
THE DALLES, OR CLEAR     61  52  72 NW10      30.10R                  
$$

WAZ026-027-041>044-520-521-211000-
EAST SLOPES
  
CITY           SKY/WX    TMP DP  RH WIND       PRES   REMARKS
OMAK           CLEAR     49  41  74 CALM      30.07R                  
WENATCHEE      CLEAR     58  44  60 NW12      30.08R                  
ELLENSBURG     CLEAR     57  44  62 NW21G29   30.09R                  
YAKIMA         CLEAR     48  41  76 SW3       30.09R                  
SUNNYSIDE ARPT SUNNY     47  46  94 N3        30.09R                  
YAKIMA TC      FAIR      54  42  64 E7        30.08R                  
$$

WAZ028-034-035-211000-
COLUMBIA BASIN
  
CITY           SKY/WX    TMP DP  RH WIND       PRES   REMARKS
EPHRATA        CLEAR     60  43  53 NW13      30.04R                  
MOSES LAKE     CLEAR     57  46  66 SW5       30.06R                  
PASCO          CLEAR     53  49  86 CALM      30.08R                  
RICHLAND ARPT  SUNNY     55  49  80 CALM      30.08R                  
HERMISTON, OR  CLEAR     60  47  61 SW12      30.08R                  
$$

WAZ036>038-211000-
NORTHEAST WASHINGTON
  
CITY           SKY/WX    TMP DP  RH WIND       PRES   REMARKS
SPOKANE GEIGER PTCLDY    50  45  83 S5        30.06R                  
SPOKANE FELTS  CLEAR     49  47  93 CALM      30.07R                  
FAIRCHILD AFB  CLEAR     49  49 100 CALM      30.06R                  
COEURDALENE,ID CLEAR     49  48  97 S6        30.07R                  
DEER PARK      FOG       42  41  96 CALM      30.07R VSB 1/4          
$$

WAZ029>033-211000-
SOUTHEAST WASHINGTON
  
CITY           SKY/WX    TMP DP  RH WIND       PRES   REMARKS
PULLMAN        CLOUDY    51  46  83 CALM      30.10S                  
LEWISTON, ID   MOCLDY    56  48  74 CALM      30.07S                  
WALLA WALLA    PTCLDY    57  47  69 S8        30.10R                  
PENDLETON, OR  CLEAR     53  46  77 S6        30.11R                  
$$